Torna al catalogo

SL-8 DEB *

AttivoLEO
NORAD 13498·DEBRIS·🇷🇺 Russia

Lanciato May 7, 1981 da Plesetsk Cosmodrome

Loading…

Prossimi Passaggi (prossime 24 ore)

TLE

AggiornatoSource: Space-Track

Epoca: Sep 14, 2026, 02:33 UTC

1 13498U 81041C   26257.10688677  .00001619  00000-0  25980-3 0  9998
2 13498  74.0128 125.2974 0009366 200.5888 313.5927 14.72536879414151

Traccia SL-8 DEB * in tempo reale con AllMySat

Download on the App Store